Weather History for KFMM - March, 2013

Change the Weather History Date:

Tuesday, March 5, 2013

  Actual Average (KAKO) Record (KAKO)
Temperature  
Mean Temperature 26 °F 36 °F  
Max Temperature 39 °F 49 °F 72 °F (1950)
Min Temperature 12 °F 24 °F -15 °F (1943)
Degree Days  
Heating Degree Days 40    
Month to date heating degree days  
Cooling Degree Days 0    
Month to date cooling degree days  
Moisture  
Dew Point 14 °F    
Average Humidity 61    
Maximum Humidity 83    
Minimum Humidity 32    
Precipitation  
Precipitation 0.00 in 0.02 in 1.23 in (1983)
Month to date precipitation 0.10  
Year to date precipitation 0.84  
Sea Level Pressure  
Sea Level Pressure 30.23 in    
Wind  
Wind Speed 9 mph (SSE)    
Max Wind Speed 21 mph    
Max Gust Speed 18 mph    
Visibility 10 miles    
Events      
T = Trace of Precipitation, MM = Missing Value Source: NWS Daily Summary

Daily Weather History Graph

Daily Weather History Graph

Search for Another Location

Airport or City:

Trip Planner

Search our weather history database for the weather conditions in past years. The results will help you decide how hot, cold, wet, or windy it might be!

Date:

Astronomy

Mar. 05, 2013 Rise Set
Actual Time 6:22 AM MST 5:51 PM MST
Civil Twilight 5:55 AM MST 6:18 PM MST
Nautical Twilight 5:23 AM MST 6:50 PM MST
Astronomical Twilight 4:51 AM MST 7:21 PM MST
Moon 1:37 AM MST (3/5) 11:32 AM MST (3/5)
Length of Visible Light 12h 23m
Length of Day
11h 29m
Last Quarter, 40% of the Moon is Illuminated
Mar 5
Last Quarter
Mar 11
New
Mar 19
First Quarter
Mar 27
Full
Apr 2
Last Quarter

Hourly Weather History & Observations

Time (MST) Temp. Windchill Dew Point Humidity Pressure Visibility Wind Dir Wind Speed Gust Speed Precip Events Conditions
12:15 AM 18.5 °F 2.9 °F 10.9 °F 72% 30.23 in 10.0 mi North 18.4 mph - N/A   Clear
12:35 AM 18.0 °F 1.3 °F 10.8 °F 73% 30.22 in 10.0 mi North 20.7 mph - N/A   Clear
12:55 AM 17.6 °F 1.3 °F 10.4 °F 73% 30.22 in 10.0 mi North 19.6 mph - N/A   Clear
1:15 AM 17.4 °F 12.1 °F 10.4 °F 74% 30.25 in 10.0 mi WNW 3.5 mph - N/A   Clear
1:35 AM 15.6 °F 8.3 °F 9.7 °F 77% 30.26 in 10.0 mi WSW 4.6 mph - N/A   Clear
1:55 AM 15.8 °F 4.2 °F 9.5 °F 76% 30.25 in 10.0 mi NNW 9.2 mph - N/A   Clear
2:15 AM 16.5 °F - 9.1 °F 73% 30.25 in 10.0 mi Calm Calm - N/A   Clear
2:35 AM 14.4 °F 8.6 °F 8.2 °F 77% 30.24 in 10.0 mi West 3.5 mph - N/A   Clear
2:55 AM 14.4 °F 4.3 °F 7.9 °F 75% 30.24 in 10.0 mi WNW 6.9 mph - N/A   Clear
3:15 AM 15.3 °F - 8.2 °F 74% 30.24 in 10.0 mi Calm Calm - N/A   Clear
3:35 AM 14.0 °F - 7.3 °F 75% 30.26 in 10.0 mi Calm Calm - N/A   Clear
3:55 AM 15.3 °F - 7.2 °F 70% 30.26 in 10.0 mi Calm Calm - N/A   Clear
4:15 AM 16.0 °F - 7.0 °F 68% 30.25 in 10.0 mi Calm Calm - N/A   Clear
4:35 AM 16.3 °F - 6.8 °F 66% 30.26 in 10.0 mi Calm Calm - N/A   Clear
4:55 AM 16.0 °F 7.4 °F 6.8 °F 67% 30.26 in 10.0 mi NNW 5.8 mph - N/A   Clear
5:15 AM 14.2 °F - 6.8 °F 73% 30.26 in 10.0 mi Calm Calm - N/A   Clear
6:15 AM 12.6 °F 1.1 °F 6.6 °F 77% 30.27 in 10.0 mi NW 8.1 mph - N/A   Clear
6:35 AM 14.5 °F 7.1 °F 7.2 °F 73% 30.27 in 10.0 mi SSW 4.6 mph - N/A   Clear
6:55 AM 13.3 °F 4.2 °F 6.8 °F 75% 30.28 in 10.0 mi SSW 5.8 mph - N/A   Clear
7:15 AM 14.4 °F 5.5 °F 8.8 °F 79% 30.28 in 10.0 mi SW 5.8 mph - N/A   Clear
7:35 AM 16.2 °F 7.6 °F 10.0 °F 77% 30.29 in 10.0 mi WSW 5.8 mph - N/A   Clear
7:55 AM 18.1 °F 10.0 °F 11.7 °F 76% 30.29 in 10.0 mi WSW 5.8 mph - N/A   Clear
8:15 AM 19.4 °F 7.9 °F 12.4 °F 74% 30.30 in 10.0 mi WSW 10.4 mph - N/A   Clear
8:35 AM 21.2 °F 10.1 °F 12.4 °F 69% 30.31 in 10.0 mi WSW 10.4 mph - N/A   Clear
8:55 AM 23.0 °F 12.4 °F 13.1 °F 66% 30.31 in 10.0 mi West 10.4 mph - N/A   Clear
9:15 AM 24.8 °F 15.3 °F 13.3 °F 62% 30.31 in 10.0 mi SW 9.2 mph - N/A   Clear
9:35 AM 26.2 °F 18.6 °F 13.5 °F 59% 30.31 in 10.0 mi SW 6.9 mph - N/A   Clear
9:55 AM 27.7 °F 22.4 °F 13.6 °F 56% 30.30 in 10.0 mi SW 4.6 mph - N/A   Clear
10:15 AM 29.8 °F 23.9 °F 14.7 °F 53% 30.30 in 10.0 mi SSW 5.8 mph - N/A   Clear
10:35 AM 30.6 °F 25.8 °F 13.6 °F 50% 30.30 in 10.0 mi South 4.6 mph - N/A   Clear
10:55 AM 31.6 °F 27.0 °F 13.5 °F 47% 30.29 in 10.0 mi SSW 4.6 mph - N/A   Clear
11:15 AM 32.0 °F 27.5 °F 14.5 °F 49% 30.29 in 10.0 mi SE 4.6 mph - N/A   Clear
11:35 AM 33.4 °F 30.4 °F 13.8 °F 45% 30.29 in 10.0 mi SSE 3.5 mph - N/A   Clear
11:55 AM 34.3 °F 31.4 °F 11.1 °F 38% 30.28 in 10.0 mi SE 3.5 mph - N/A   Clear
12:15 PM 35.1 °F - 10.4 °F 36% 30.27 in 10.0 mi Calm Calm - N/A   Clear
12:35 PM 36.9 °F 34.3 °F 11.1 °F 35% 30.26 in 10.0 mi South 3.5 mph - N/A   Clear
12:55 PM 37.4 °F 32.1 °F 11.3 °F 34% 30.24 in 10.0 mi ESE 6.9 mph - N/A   Clear
1:15 PM 37.8 °F 34.2 °F 11.5 °F 34% 30.24 in 10.0 mi South 4.6 mph - N/A   Clear
1:35 PM 39.2 °F 37.0 °F 12.4 °F 33% 30.23 in 10.0 mi SSE 3.5 mph - N/A   Clear
1:55 PM 39.4 °F 33.2 °F 12.6 °F 33% 30.22 in 10.0 mi SE 9.2 mph - N/A   Clear
2:15 PM 38.8 °F 36.5 °F 12.0 °F 33% 30.22 in 10.0 mi SE 3.5 mph - N/A   Clear
2:35 PM 39.4 °F 32.7 °F 12.6 °F 33% 30.22 in 10.0 mi SSE 10.4 mph - N/A   Clear
2:55 PM 39.4 °F 31.8 °F 12.2 °F 33% 30.21 in 10.0 mi SE 12.7 mph 18.4 mph N/A   Clear
3:15 PM 39.9 °F 32.1 °F 12.2 °F 32% 30.21 in 10.0 mi SE 13.8 mph - N/A   Clear
3:35 PM 39.4 °F 33.8 °F 12.0 °F 33% 30.20 in 10.0 mi ESE 8.1 mph 17.3 mph N/A   Clear
3:55 PM 39.7 °F 33.2 °F 14.2 °F 35% 30.20 in 10.0 mi SSE 10.4 mph - N/A   Clear
4:15 PM 39.6 °F 31.3 °F 14.9 °F 37% 30.20 in 10.0 mi SE 15.0 mph 18.4 mph N/A   Clear
4:35 PM 39.2 °F 33.6 °F 16.7 °F 40% 30.18 in 10.0 mi SE 8.1 mph - N/A   Clear
4:55 PM 38.8 °F 32.1 °F 18.7 °F 44% 30.18 in 10.0 mi SE 10.4 mph 16.1 mph N/A   Clear
5:15 PM 38.3 °F 33.9 °F 19.0 °F 46% 30.19 in 10.0 mi SE 5.8 mph - N/A   Clear
5:35 PM 37.0 °F 31.6 °F 19.4 °F 49% 30.18 in 10.0 mi SE 6.9 mph - N/A   Clear
5:55 PM 32.4 °F 26.0 °F 18.5 °F 57% 30.18 in 10.0 mi East 6.9 mph - N/A   Clear
6:15 PM 31.3 °F 23.9 °F 18.3 °F 59% 30.18 in 10.0 mi ESE 8.1 mph - N/A   Clear
6:35 PM 30.2 °F 21.9 °F 19.2 °F 64% 30.18 in 10.0 mi ESE 9.2 mph - N/A   Clear
6:55 PM 30.0 °F 21.1 °F 19.9 °F 66% 30.18 in 10.0 mi East 10.4 mph - N/A   Clear
7:15 PM 30.0 °F 21.1 °F 20.3 °F 67% 30.18 in 10.0 mi East 10.4 mph - N/A   Clear
7:35 PM 28.4 °F 19.7 °F 19.9 °F 71% 30.18 in 10.0 mi ESE 9.2 mph - N/A   Clear
7:55 PM 25.9 °F 16.6 °F 19.2 °F 76% 30.18 in 10.0 mi East 9.2 mph - N/A   Clear
8:15 PM 26.6 °F 17.5 °F 20.1 °F 77% 30.17 in 10.0 mi ESE 9.2 mph - N/A   Clear
8:35 PM 27.5 °F 18.0 °F 21.2 °F 77% 30.17 in 10.0 mi ESE 10.4 mph - N/A   Clear
8:55 PM 27.7 °F 18.8 °F 20.8 °F 75% 30.17 in 10.0 mi ESE 9.2 mph - N/A   Clear
9:15 PM 25.3 °F 16.0 °F 19.9 °F 80% 30.17 in 10.0 mi ESE 9.2 mph - N/A   Clear
9:35 PM 27.5 °F 18.6 °F 20.8 °F 76% 30.17 in 10.0 mi ESE 9.2 mph - N/A   Clear
9:55 PM 26.8 °F 17.1 °F 20.7 °F 78% 30.17 in 10.0 mi SE 10.4 mph - N/A   Clear
10:15 PM 27.5 °F 18.6 °F 20.8 °F 76% 30.17 in 10.0 mi SE 9.2 mph - N/A   Clear
10:35 PM 27.0 °F 18.0 °F 20.8 °F 78% 30.17 in 10.0 mi SE 9.2 mph - N/A   Clear
10:55 PM 26.2 °F 16.4 °F 20.8 °F 80% 30.16 in 10.0 mi SE 10.4 mph - N/A   Clear
11:15 PM 24.6 °F 16.7 °F 20.1 °F 83% 30.16 in 10.0 mi SSE 6.9 mph - N/A   Clear
11:35 PM 25.7 °F 16.4 °F 20.3 °F 80% 30.16 in 10.0 mi SSE 9.2 mph - N/A   Clear
11:55 PM 26.6 °F 18.2 °F 20.1 °F 77% 30.16 in 10.0 mi SSE 8.1 mph - N/A   Clear